SUR4091 SBNF-SABE

Flight info

Callsign SUR4091
Flight time N/A
Altitude 30000
Route ARSIT UZ38 UMRUD UN741 PAPIX PAPIX2Q
Aircraft B737/M-SDE2E3FGHIRWXY/LB1

Departure

Time 2026-05-06 19:41
Airport Ministro Victor Konder International Airport (SBNF)

Arrival

Time N/A
Airport Aeroparque Jorge Newbery (SABE)
Time Latitude Longitude Altitude Speed Heading
2026-05-06 19:13 -26.87999 -48.64906 34 ft 0 kts 147°
2026-05-06 19:32 -26.87991 -48.64912 34 ft 2 kts 133°
2026-05-06 19:32 -26.87985 -48.64919 33 ft 2 kts 125°
2026-05-06 19:32 -26.87978 -48.64942 34 ft 2 kts 87°
2026-05-06 19:33 -26.87981 -48.64960 32 ft 2 kts 67°
2026-05-06 19:33 -26.87988 -48.64976 31 ft 1 kts 58°
2026-05-06 19:33 -26.87990 -48.64980 32 ft 0 kts 57°
2026-05-06 19:36 -26.87990 -48.64979 32 ft 1 kts 55°
2026-05-06 19:36 -26.87974 -48.64969 33 ft 4 kts 17°
2026-05-06 19:37 -26.87939 -48.64982 36 ft 6 kts 327°
2026-05-06 19:37 -26.87913 -48.65023 36 ft 8 kts 276°
2026-05-06 19:37 -26.87946 -48.65095 34 ft 13 kts 236°
2026-05-06 19:37 -26.88008 -48.65193 33 ft 17 kts 234°
2026-05-06 19:38 -26.88076 -48.65306 35 ft 18 kts 239°
2026-05-06 19:38 -26.88154 -48.65435 35 ft 21 kts 236°
2026-05-06 19:38 -26.88227 -48.65573 37 ft 20 kts 241°
2026-05-06 19:38 -26.88295 -48.65708 36 ft 20 kts 235°
2026-05-06 19:39 -26.88347 -48.65790 36 ft 5 kts 221°
2026-05-06 19:39 -26.88365 -48.65780 33 ft 3 kts 85°
2026-05-06 19:39 -26.88347 -48.65760 35 ft 0 kts 54°
2026-05-06 19:40 -26.88339 -48.65748 36 ft 14 kts 53°
2026-05-06 19:40 -26.88123 -48.65400 34 ft 96 kts 56°
2026-05-06 19:40 -26.87603 -48.64556 58 ft 162 kts 53°
2026-05-06 19:41 -26.86942 -48.63457 679 ft 176 kts 54°
2026-05-06 19:41 -26.86216 -48.62298 1504 ft 187 kts 52°
2026-05-06 19:41 -26.85397 -48.61105 2201 ft 203 kts 51°
2026-05-06 19:41 -26.84528 -48.59742 2614 ft 229 kts 50°
2026-05-06 19:42 -26.83180 -48.58786 3217 ft 239 kts
2026-05-06 19:42 -26.81560 -48.59047 4202 ft 238 kts 332°
2026-05-06 19:42 -26.80221 -48.60159 5187 ft 241 kts 319°
2026-05-06 19:42 -26.78961 -48.61404 5705 ft 246 kts 318°
2026-05-06 19:43 -26.77686 -48.62680 5993 ft 247 kts 318°
2026-05-06 19:43 -26.76399 -48.63959 5982 ft 247 kts 318°
2026-05-06 19:43 -26.75102 -48.65232 6061 ft 248 kts 319°
2026-05-06 19:43 -26.73789 -48.66509 6654 ft 252 kts 319°
2026-05-06 19:44 -26.72463 -48.67790 7633 ft 251 kts 319°
2026-05-06 19:44 -26.71150 -48.69055 8513 ft 254 kts 319°
2026-05-06 19:44 -26.69797 -48.70356 9387 ft 258 kts 319°
2026-05-06 19:44 -26.68522 -48.71786 10195 ft 262 kts 302°
2026-05-06 19:45 -26.67912 -48.73717 10961 ft 267 kts 275°
2026-05-06 19:45 -26.68182 -48.75789 11534 ft 281 kts 248°
2026-05-06 19:45 -26.69163 -48.77722 12049 ft 288 kts 238°
2026-05-06 19:45 -26.70283 -48.79563 12060 ft 290 kts 237°
2026-05-06 19:46 -26.71435 -48.81424 12079 ft 289 kts 237°
2026-05-06 19:46 -26.72566 -48.83287 12079 ft 289 kts 238°
2026-05-06 19:46 -26.73686 -48.85160 12082 ft 288 kts 238°
2026-05-06 19:46 -26.74794 -48.87026 12088 ft 288 kts 238°
2026-05-06 19:47 -26.75899 -48.88862 12092 ft 288 kts 237°
2026-05-06 19:47 -26.77032 -48.90722 12080 ft 288 kts 237°
2026-05-06 19:47 -26.78160 -48.92569 12087 ft 287 kts 237°
2026-05-06 19:47 -26.79289 -48.94422 12102 ft 287 kts 237°
2026-05-06 19:48 -26.80415 -48.96272 12092 ft 288 kts 237°
2026-05-06 19:48 -26.81528 -48.98102 12104 ft 289 kts 237°
2026-05-06 19:48 -26.82664 -48.99972 12101 ft 290 kts 237°
2026-05-06 19:48 -26.83798 -49.01840 12099 ft 290 kts 237°
2026-05-06 19:49 -26.84934 -49.03713 12102 ft 290 kts 237°
2026-05-06 19:49 -26.86030 -49.05632 12379 ft 294 kts 239°